sat.trackr.live / text

‹ back to catalog

STARLINK-34501

NORAD 64429 · 2025-129T

PAYLOAD ACTIVE UNKNOWN

§ Identity

Operator
Country
US
Launch date
2025-06-17
Launch site
AFWTR
Launch vehicle
Mass (kg)
RCS (m²)

Purposes: comms

External: N2YO · Heavens-Above · Gunter

§ Orbital elements

Epoch: 2026-09-20T14:37:36.227712Z

Period
94.09 min
Inclination
70.0001°
Eccentricity
0.0003206
Mean motion
15.30420967 rev/d
Perigee alt
472.4 km
Apogee alt
476.8 km
Semi-major
6,852.7 km
B*
2.4521e-4
RAAN
300.6329°
Arg perigee
271.1325°
Mean anomaly
88.9483°
Rev number
7,054

§ Raw data

STARLINK-345011 64429U 25129T   26263.60944708  .00007112  00000+0  24521-3 0  99982 64429  70.0001 300.6329 0003206 271.1325  88.9483 15.30420967 70543

JSON: /api/v1/satellites/64429 · /tle

For live sub-satellite position, see the globe view (requires WebGL).

§ Visibility from observer

Set your observer location to see the next 7 days of passes ≥ 10°. The values pass through the URL so the page stays shareable.

No JS? Fill the form by hand. The geolocation button needs JavaScript.